Weather in Thủ Dầu Một

Vietnam     10°58′47″N   106°39′20″E
temp.,
°C
wind,
m/s
gust,
m/s
humid.,
%
clouds,
%
prec.,
mm/h
press.,
hPa
HPBL,
m
20 april, tue
tue2001:00+27sw257656 1.0 1010268
04:00+26s127884 0.1 100960
07:00+27ese127679 0.1 1011385
10:00+32sw335122 0.0 10111489
13:00+35wsw3339100 0.0 10072425
16:00+32nnw1254100 0.5 1006336
19:00+31sse0159100 0.5 100837
22:00+29sse3568100 0.0 1010179
21 april, wed
wed2101:00+28s3671100 0.0 1009247
04:00+27ssw2479100 1.3 1008127
07:00+28ssw237788 4.3 1010322
10:00+32sw225970 1.4 10111257
13:00+33sse225199 3.6 10081446
16:00+33s2252100 0.1 1006939
19:00+29sse3572100 1.6 1008167
22:00+28se357399 3.6 1010130
22 april, thu
thu2201:00+27s2378100 3.6 100988
04:00+27sse238099 0.0 100893
07:00+28se2377100 0.0 1010319
10:00+30ssw1264100 0.1 10101035
13:00+34wsw334894 0.1 10071749
16:00+31nne2358100 1.8 1005357
19:00+26ese2385100 8.8 1008188
22:00+25sse2388100 3.8 1010164
23 april, fri
fri2301:00+26s2486100 4.4 1008301
04:00+26ese2288100 0.4 1007141
07:00+27ese228489 0.5 1009341
10:00+32sw345948 0.1 10091400
13:00+34wsw444590 0.3 10062019
16:00+34w4447100 0.3 10051616
19:00+29sw586694 4.2 1007465
22:00+28sw4774100 1.3 1009350
24 april, sat
sat2401:00+27sw3679100 1.6 1008355
04:00+26ssw248230 0.0 1008148
07:00+28sw247599 0.0 1010536
10:00+32wsw44535 0.0 10101300
13:00+36wsw334199 0.0 10062382
16:00+33sw2348100 0.4 1005262
19:00+31s365897 0.4 1007260
22:00+29wsw5868100 2.1 1010491